Austin, TX

7:29 PM CDT on September 28, 2016 (GMT -0500)
Austin Bergstrom International

Weather History for KAUS - October, 2014

Change the Weather History Date:

Friday, October 31, 2014

  Actual Average Record
Temperature  
Mean Temperature 64 °F 64 °F  
Max Temperature 76 °F 77 °F 90 °F (1997)
Min Temperature 51 °F 51 °F 36 °F (1980)
Degree Days  
Heating Degree Days 1 4  
Month to date heating degree days 1 50  
Since 1 July heating degree days 2 51  
Cooling Degree Days 0 3  
Month to date cooling degree days 212 175  
Year to date cooling degree days 2814 2703  
Growing Degree Days 14 (Base 50)    
Moisture  
Dew Point 49 °F    
Average Humidity 64    
Maximum Humidity 100    
Minimum Humidity 27    
Precipitation  
Precipitation 0.17 in 0.14 in 2.49 in (2013)
Month to date precipitation 1.94 4.24  
Year to date precipitation 20.71 29.49  
Snow  
Snow 0.00 in - - ()
Month to date snowfall 0.0  
Since 1 July snowfall 0.0  
Since 1 September snowfall 0.0  
Snow Depth 0.00 in    
Sea Level Pressure  
Sea Level Pressure 30.22 in    
Wind  
Wind Speed 12 mph (North)    
Max Wind Speed 25 mph    
Max Gust Speed 30 mph    
Visibility 10 miles    
Events Rain    
T = Trace of Precipitation, MM = Missing Value Source: NWS Daily Summary

Daily Weather History Graph

Daily Weather History Graph

Search for Another Location

Airport or City:

Trip Planner

Search our weather history database for the weather conditions in past years. The results will help you decide how hot, cold, wet, or windy it might be!

Date:

Astronomy

Oct. 31, 2014 Rise Set
Actual Time 7:44 AM CDT 6:44 PM CDT
Civil Twilight 7:19 AM CDT 7:08 PM CDT
Nautical Twilight 6:51 AM CDT 7:37 PM CDT
Astronomical Twilight 6:22 AM CDT 8:05 PM CDT
Moon 2:32 PM CDT (10/31) 1:03 AM CDT (10/31)
Length of Visible Light 11h 49m
Length of Day
11h 00m
First Quarter, 57% of the Moon is Illuminated
Oct 31
First Quarter
Nov 6
Full
Nov 14
Last Quarter
Nov 22
New
Nov 29
First Quarter

Hourly Weather History & Observations

Time (CDT) Temp. Dew Point Humidity Pressure Visibility Wind Dir Wind Speed Gust Speed Precip Events Conditions
12:53 AM 66.0 °F 61.0 °F 84% 30.10 in 10.0 mi Calm Calm - 0.00 in   Partly Cloudy
1:53 AM 64.9 °F 59.0 °F 81% 30.11 in 10.0 mi NNW 3.5 mph - N/A   Overcast
2:53 AM 62.1 °F 59.0 °F 90% 30.15 in 5.0 mi North 9.2 mph - 0.07 in Rain Rain
3:53 AM 62.1 °F 60.1 °F 93% 30.15 in 7.0 mi North 8.1 mph - 0.09 in Rain Light Rain
4:53 AM 61.0 °F 60.1 °F 97% 30.15 in 10.0 mi NW 4.6 mph - 0.01 in   Overcast
5:53 AM 60.1 °F 59.0 °F 96% 30.16 in 10.0 mi Calm Calm - N/A   Clear
6:53 AM 57.9 °F 57.9 °F 100% 30.19 in 10.0 mi NW 3.5 mph - N/A   Scattered Clouds
7:53 AM 59.0 °F 55.0 °F 87% 30.20 in 10.0 mi North 9.2 mph - N/A   Mostly Cloudy
8:53 AM 59.0 °F 53.1 °F 81% 30.23 in 10.0 mi North 11.5 mph - N/A   Mostly Cloudy
9:53 AM 64.0 °F 50.0 °F 60% 30.25 in 10.0 mi North 15.0 mph - N/A   Scattered Clouds
10:53 AM 69.1 °F 48.0 °F 47% 30.27 in 10.0 mi North 13.8 mph - N/A   Partly Cloudy
11:53 AM 72.0 °F 45.0 °F 38% 30.27 in 10.0 mi North 19.6 mph 26.5 mph N/A   Partly Cloudy
12:53 PM 73.9 °F 43.0 °F 33% 30.25 in 10.0 mi North 21.9 mph 26.5 mph N/A   Partly Cloudy
1:53 PM 75.0 °F 42.1 °F 31% 30.22 in 10.0 mi North 23.0 mph 28.8 mph N/A   Partly Cloudy
2:53 PM 75.9 °F 39.9 °F 27% 30.20 in 10.0 mi NNW 16.1 mph 27.6 mph N/A   Partly Cloudy
3:53 PM 75.0 °F 39.0 °F 27% 30.19 in 10.0 mi NNE 19.6 mph - N/A   Partly Cloudy
4:53 PM 73.9 °F 37.9 °F 27% 30.20 in 10.0 mi North 15.0 mph - N/A   Partly Cloudy
5:53 PM 71.1 °F 39.9 °F 32% 30.22 in 10.0 mi North 17.3 mph - N/A   Partly Cloudy
6:53 PM 66.0 °F 41.0 °F 40% 30.23 in 10.0 mi NNE 11.5 mph - N/A   Partly Cloudy
7:53 PM 64.0 °F 41.0 °F 43% 30.26 in 10.0 mi NNE 11.5 mph - N/A   Clear
8:53 PM 54.0 °F 43.0 °F 66% 30.29 in 10.0 mi North 8.1 mph - N/A   Clear
9:53 PM 55.9 °F 43.0 °F 62% 30.31 in 10.0 mi North 8.1 mph - N/A   Clear
10:53 PM 57.9 °F 42.1 °F 56% 30.31 in 10.0 mi North 12.7 mph - N/A   Partly Cloudy
11:53 PM 55.9 °F 42.1 °F 60% 30.31 in 10.0 mi NNE 9.2 mph - N/A   Clear